[[{"header":{"parameterUnit":"m.s-1","parameterCategory":1,"la1":30.2991,"la2":30.254,"lo1":-89.0895,"lo2":-89.0444,"dy":0.0017,"dx":0.0017,"nx":28,"ny":28,"refTime":"2025-03-30T21:00:00:Z","depth":0,"parameterNumber":2,"parameterNumberName":"U-component_of_WINDS"},"data":[0,0,0,0,0,0,0,0,0,0,0,0,0,0,0,0,0,0,0,0,0,0,0,0,0,0,0,0,0,0,0,0,0,0,0,0,0,0,0,0,0,0,0,0,0,0,0,0,0,0,0,0,0,0,0,0,0,0,-1.888,-1.888,0,-1.8861,-1.886,-1.886,-1.8837,-1.8836,-1.8836,-1.8836,-1.8817,-1.8816,-1.8816,0,0,0,0,0,0,0,0,0,0,0,0,0,-1.8896,-1.8896,-1.888,-1.888,-1.8879,-1.8861,-1.886,-1.886,-1.8837,-1.8836,-1.8836,-1.8836,-1.8817,-1.8816,-1.8816,0,0,0,0,0,0,0,0,0,0,0,0,0,-1.8884,-1.8896,-1.888,-1.8865,-1.8864,-1.8861,-1.886,-1.886,-1.8837,-1.8836,-1.8836,-1.8835,-1.8817,-1.8816,-1.8816,-1.8826,0,0,-1.8815,-1.8815,0,0,0,0,0,0,0,0,-1.8885,-1.8884,-1.8868,-1.8866,-1.8865,-1.8851,-1.8859,-1.8849,-1.8837,-1.8847,-1.8836,-1.8835,-1.8828,-1.8827,-1.8825,-1.8825,-1.8824,-1.8815,-1.8815,-1.8815,-1.8815,0,0,0,0,0,0,0,-1.8886,-1.8884,-1.8872,-1.8868,-1.8866,-1.886,-1.8858,-1.8857,-1.8841,-1.8846,-1.8845,-1.8843,-1.8827,-1.8825,-1.8824,-1.8824,-1.8815,-1.8815,-1.8815,-1.8815,-1.883,-1.883,0,0,0,0,0,0,-1.8889,-1.8885,-1.8873,-1.8872,-1.8874,-1.886,-1.8858,-1.8856,-1.8841,-1.8838,-1.8843,-1.8842,-1.8826,-1.8824,-1.8823,-1.8833,-1.8815,-1.8815,-1.8815,-1.8829,-1.883,-1.883,0,0,0,0,0,0,-1.8889,-1.8888,-1.8874,-1.8878,-1.8876,-1.886,-1.8859,-1.8856,-1.8853,-1.8839,-1.8836,-1.8844,-1.8825,-1.8824,-1.8825,-1.8832,-1.8815,-1.8815,-1.8828,-1.8829,-1.883,-1.8852,0,0,0,0,0,0,-1.889,-1.8888,-1.8892,-1.8878,-1.8876,-1.8876,-1.8859,-1.8856,-1.8853,-1.8851,-1.8838,-1.8836,-1.8825,-1.8825,-1.8825,-1.8831,-1.8814,-1.8828,-1.8829,-1.883,-1.8851,-1.8854,-1.8856,0,0,0,0,0,-1.889,-1.8899,-1.8892,-1.8891,-1.888,-1.8876,-1.8875,-1.8862,-1.8853,-1.8857,-1.8847,-1.8836,-1.8831,-1.8826,-1.8825,-1.8831,-1.8827,-1.8828,-1.883,-1.8849,-1.8853,-1.8856,0,0,0,0,0,0,-1.8914,-1.8897,-1.8889,-1.8893,-1.8886,-1.8872,-1.8876,-1.8866,-1.8861,-1.8859,-1.8844,-1.8841,-1.8844,-1.8838,-1.8832,-1.8839,-1.8828,-1.8829,-1.8843,-1.8846,-1.8849,-1.885,-1.8814,0,0,0,0,0,-1.8919,-1.8918,-1.8903,-1.8909,-1.8906,-1.8891,-1.889,-1.888,-1.8872,-1.8869,-1.886,-1.8853,-1.8849,-1.8848,-1.8844,-1.885,-1.8846,-1.8854,-1.8856,-1.8859,-1.8859,-1.8861,-1.8864,-1.8834,-1.8834,-1.8834,0,0,-1.8931,-1.8922,-1.8922,-1.8913,-1.8907,-1.8905,-1.8889,-1.8889,-1.8887,-1.8869,-1.8869,-1.8862,-1.8853,-1.8857,-1.8858,-1.8852,-1.8867,-1.886,-1.8862,-1.8862,-1.8863,-1.8866,-1.8868,-1.8835,-1.8835,-1.8835,0,0,-1.8952,-1.8945,-1.8948,-1.8941,-1.8932,-1.8922,-1.8923,-1.891,-1.8905,-1.8905,-1.8891,-1.8889,-1.8884,-1.8878,-1.8874,-1.8892,-1.8881,-1.8891,-1.8905,-1.8907,-1.8909,-1.8911,-1.8917,-1.8919,-1.8892,-1.8892,-1.8892,0,-1.8967,-1.8965,-1.8951,-1.8951,-1.8947,-1.893,-1.8933,-1.8928,-1.8918,-1.8915,-1.8909,-1.8901,-1.8894,-1.8895,-1.89,-1.8897,-1.8897,-1.8892,-1.891,-1.8912,-1.8914,-1.8919,-1.8921,-1.8894,-1.8893,-1.8893,-1.8893,0,-1.8984,-1.8983,-1.8986,-1.8976,-1.8973,-1.8975,-1.8961,-1.8959,-1.895,-1.8941,-1.8941,-1.8932,-1.8926,-1.8926,-1.8917,-1.8926,-1.8922,-1.8913,-1.8901,-1.8918,-1.8922,-1.8924,-1.8895,-1.8895,-1.8895,-1.8894,0,0,-1.9018,-1.9,-1.9002,-1.8997,-1.8985,-1.8983,-1.8984,-1.8978,-1.8976,-1.897,-1.8969,-1.8965,-1.8957,-1.8952,-1.8943,-1.8945,-1.8958,-1.8935,-1.8935,-1.8939,-1.8966,-1.8972,-1.8975,-1.8951,-1.8952,-1.8952,-1.8967,0,-1.9036,-1.9036,-1.9023,-1.9027,-1.9025,-1.9009,-1.9009,-1.9002,-1.8993,-1.899,-1.8981,-1.8978,-1.8968,-1.8965,-1.8966,-1.8956,-1.8963,-1.8955,-1.895,-1.895,-1.8952,-1.8977,-1.8984,-1.8999,-1.8968,-1.8969,-1.8969,0,-1.9056,-1.9051,-1.9054,-1.9041,-1.9039,-1.904,-1.9033,-1.9031,-1.9022,-1.9015,-1.901,-1.8999,-1.8999,-1.8988,-1.8987,-1.8981,-1.8979,-1.8974,-1.8974,-1.8972,-1.896,-1.8976,-1.9003,-1.9005,-1.8972,-1.8971,-1.8971,0,-1.908,-1.9073,-1.9074,-1.907,-1.9055,-1.9056,-1.905,-1.904,-1.9037,-1.9031,-1.9028,-1.9023,-1.9019,-1.9014,-1.9002,-1.8995,-1.9002,-1.899,-1.8996,-1.8996,-1.8998,-1.8998,-1.9024,-1.8997,-1.8997,-1.8997,-1.8997,0,-1.9101,-1.9103,-1.9084,-1.9085,-1.9087,-1.9072,-1.9074,-1.9067,-1.9058,-1.9057,-1.9043,-1.9042,-1.9025,-1.9022,-1.9013,-1.9012,-1.9011,-1.9006,-1.9003,-1.9007,-1.9007,-1.9004,-1.9003,-1.8998,-1.8998,-1.8998,-1.8998,0,-1.9127,-1.9115,-1.9114,-1.91,-1.9097,-1.9099,-1.9087,-1.9086,-1.9077,-1.9075,-1.9074,-1.906,-1.9055,-1.9042,-1.9035,-1.9028,-1.903,-1.9026,-1.9033,-1.9032,-1.9038,-1.9037,-1.9063,-1.9065,-1.9038,-1.9038,-1.9038,0,-1.9141,-1.9142,-1.9128,-1.9126,-1.912,-1.9117,-1.9113,-1.9099,-1.9096,-1.9086,-1.9086,-1.9081,-1.9075,-1.9069,-1.9058,-1.9052,-1.9046,-1.9056,-1.9045,-1.9049,-1.9045,-1.9045,-1.9045,-1.9058,-1.9058,-1.9058,-1.9059,0,-1.9166,-1.9159,-1.9155,-1.9148,-1.9144,-1.9138,-1.9131,-1.9131,-1.9114,-1.9112,-1.9107,-1.9103,-1.9095,-1.9089,-1.9081,-1.9074,-1.9064,-1.9062,-1.9063,-1.9066,-1.907,-1.9067,-1.9039,-1.9061,-1.9061,-1.9061,-1.9061,-1.9061,-1.9185,-1.9186,-1.9176,-1.9171,-1.9164,-1.9158,-1.9157,-1.9147,-1.9143,-1.9135,-1.9127,-1.9123,-1.9113,-1.9101,-1.9096,-1.9092,-1.9086,-1.9088,-1.9088,-1.9089,-1.909,-1.9072,-1.9091,-1.9091,-1.909,-1.909,-1.909,0,-1.9209,-1.9202,-1.9198,-1.9188,-1.9184,-1.9175,-1.9167,-1.9164,-1.916,-1.9152,-1.9147,-1.9141,-1.9136,-1.9124,-1.9117,-1.9116,-1.9111,-1.9115,-1.9115,-1.9113,-1.9096,-1.9095,-1.9119,-1.9119,-1.9119,-1.9119,-1.9119,-1.9119,-1.9221,-1.922,-1.9213,-1.9209,-1.9201,-1.9197,-1.9193,-1.9187,-1.918,-1.9174,-1.917,-1.9162,-1.9152,-1.9144,-1.9139,-1.9135,-1.9133,-1.9138,-1.9133,-1.9117,-1.9114,-1.9112,-1.9111,-1.9138,-1.9138,-1.9151,-1.9151,-1.9151]},{"header":{"parameterUnit":"m.s-1","parameterCategory":1,"la1":30.2991,"la2":30.254,"lo1":-89.0895,"lo2":-89.0444,"dy":0.0017,"dx":0.0017,"nx":28,"ny":28,"refTime":"2025-03-30T21:00:00:Z","depth":0,"parameterNumber":3,"parameterNumberName":"V-component_of_WINDS"},"data":[0,0,0,0,0,0,0,0,0,0,0,0,0,0,0,0,0,0,0,0,0,0,0,0,0,0,0,0,0,0,0,0,0,0,0,0,0,0,0,0,0,0,0,0,0,0,0,0,0,0,0,0,0,0,0,0,0,0,0.4091,0.4092,0,0.4127,0.4127,0.4127,0.4112,0.4111,0.411,0.4109,0.4147,0.4149,0.415,0,0,0,0,0,0,0,0,0,0,0,0,0,0.4014,0.4015,0.4091,0.4092,0.4092,0.4126,0.4127,0.4127,0.4112,0.4111,0.411,0.4109,0.4146,0.4148,0.4151,0,0,0,0,0,0,0,0,0,0,0,0,0,0.4048,0.4016,0.4091,0.4089,0.4089,0.4126,0.4127,0.4128,0.4112,0.4111,0.411,0.4109,0.4146,0.4148,0.4151,0.4194,0,0,0.4159,0.416,0,0,0,0,0,0,0,0,0.4046,0.4051,0.4089,0.4089,0.4089,0.4114,0.4113,0.415,0.4113,0.4103,0.4109,0.4108,0.4137,0.414,0.415,0.4195,0.4197,0.4159,0.4161,0.4162,0.4163,0,0,0,0,0,0,0,0.4044,0.4049,0.4105,0.4089,0.4089,0.4087,0.409,0.412,0.4127,0.4104,0.4103,0.4107,0.4137,0.4147,0.4151,0.4197,0.4159,0.4162,0.4163,0.4164,0.4282,0.4283,0,0,0,0,0,0,0.4041,0.4048,0.4104,0.4106,0.4064,0.4089,0.4093,0.4107,0.4127,0.4128,0.4109,0.4107,0.4143,0.4147,0.4152,0.4204,0.4162,0.4165,0.4166,0.4281,0.4282,0.4284,0,0,0,0,0,0,0.404,0.4046,0.4103,0.4077,0.4084,0.4092,0.4108,0.4108,0.4119,0.413,0.4131,0.4118,0.4142,0.4148,0.4184,0.4205,0.4166,0.4168,0.4279,0.4281,0.4283,0.4308,0,0,0,0,0,0,0.4037,0.4046,0.4061,0.4077,0.4085,0.4133,0.4109,0.411,0.4123,0.4121,0.4139,0.4141,0.4142,0.418,0.4186,0.4208,0.4171,0.4277,0.428,0.4282,0.4305,0.4311,0.4315,0,0,0,0,0,0.4035,0.4066,0.4062,0.4069,0.4104,0.4134,0.4139,0.4139,0.4125,0.4141,0.4149,0.414,0.4202,0.4183,0.4191,0.4214,0.4275,0.4279,0.4282,0.4303,0.431,0.4315,0,0,0,0,0,0,0.4053,0.4068,0.4063,0.4101,0.4117,0.4131,0.4151,0.4146,0.4166,0.4163,0.4163,0.4167,0.4204,0.4213,0.4192,0.4257,0.4237,0.4242,0.425,0.4256,0.4261,0.4258,0.4173,0,0,0,0,0,0.4061,0.4083,0.4096,0.4128,0.4136,0.4143,0.4156,0.4155,0.4171,0.4177,0.4188,0.4204,0.4227,0.4242,0.4264,0.4307,0.4311,0.4327,0.4332,0.4336,0.434,0.4365,0.4372,0.4295,0.4295,0.4295,0,0,0.4078,0.409,0.4104,0.4132,0.4144,0.4168,0.4148,0.4174,0.4192,0.4181,0.4215,0.4224,0.4243,0.4282,0.43,0.429,0.4362,0.434,0.4343,0.4345,0.4369,0.4376,0.4383,0.4297,0.4297,0.4297,0,0,0.4122,0.4133,0.4161,0.4174,0.4192,0.4197,0.4204,0.422,0.4225,0.426,0.4253,0.4275,0.4315,0.4329,0.4341,0.4394,0.4387,0.4401,0.4427,0.4452,0.4458,0.4463,0.4482,0.4489,0.4405,0.4405,0.4405,0,0.4141,0.4176,0.4177,0.4204,0.4217,0.4209,0.4239,0.4252,0.4276,0.4286,0.4275,0.4326,0.4338,0.4381,0.4394,0.4405,0.4414,0.4398,0.4457,0.4462,0.4467,0.4486,0.4493,0.4407,0.4407,0.4407,0.4406,0,0.42,0.4225,0.4246,0.427,0.4286,0.4314,0.432,0.4337,0.4336,0.4342,0.4378,0.4393,0.4418,0.4429,0.4427,0.4473,0.4466,0.4456,0.4435,0.4476,0.4493,0.45,0.4409,0.4409,0.4408,0.4408,0,0,0.4253,0.4279,0.4287,0.4299,0.432,0.4339,0.4369,0.4393,0.4408,0.4426,0.4451,0.4487,0.4478,0.4492,0.4493,0.4514,0.4556,0.4501,0.4501,0.4511,0.4608,0.4616,0.4624,0.4552,0.4553,0.4554,0.4607,0,0.4299,0.4349,0.4351,0.4397,0.4421,0.4415,0.4441,0.4457,0.4465,0.4487,0.4496,0.4521,0.4507,0.4516,0.4536,0.4546,0.4575,0.4543,0.4576,0.4577,0.4571,0.4633,0.464,0.4688,0.4613,0.4615,0.4615,0,0.4358,0.4378,0.4426,0.4446,0.4456,0.4479,0.4503,0.4524,0.4544,0.4548,0.4565,0.4563,0.4595,0.4574,0.4618,0.4596,0.461,0.4617,0.4619,0.4622,0.4598,0.4637,0.4704,0.4711,0.4626,0.4625,0.4624,0,0.4393,0.4432,0.4467,0.4477,0.45,0.4517,0.4528,0.4546,0.4561,0.4583,0.4594,0.4619,0.4633,0.4653,0.4659,0.4643,0.4703,0.4683,0.4708,0.4708,0.472,0.4719,0.479,0.473,0.473,0.473,0.473,0,0.4443,0.4472,0.4483,0.4504,0.4538,0.4542,0.4576,0.4586,0.4603,0.4626,0.4624,0.4646,0.4653,0.4678,0.4683,0.4719,0.4725,0.473,0.4731,0.473,0.473,0.4739,0.4736,0.4732,0.4731,0.4731,0.4731,0,0.4486,0.4494,0.4532,0.4552,0.4558,0.4582,0.4599,0.4621,0.4629,0.4659,0.4667,0.468,0.4708,0.4717,0.4751,0.4755,0.4798,0.4796,0.4791,0.4791,0.4816,0.4814,0.4895,0.4907,0.4839,0.484,0.484,0,0.4517,0.454,0.4563,0.4579,0.4591,0.4616,0.4632,0.4638,0.4656,0.4681,0.4699,0.4728,0.4751,0.4798,0.4811,0.4838,0.4837,0.4863,0.484,0.484,0.4837,0.4836,0.4839,0.4867,0.4868,0.4869,0.4869,0,0.4572,0.4576,0.4599,0.4624,0.4644,0.4664,0.4684,0.4698,0.4706,0.4726,0.4756,0.4774,0.481,0.4839,0.4867,0.4879,0.4876,0.4877,0.4884,0.4883,0.488,0.4882,0.4803,0.4874,0.4874,0.4873,0.4873,0.4873,0.4611,0.4631,0.4651,0.4678,0.4694,0.4713,0.4734,0.4746,0.477,0.48,0.4802,0.4835,0.4856,0.4894,0.4908,0.4934,0.4926,0.4937,0.4939,0.4942,0.4944,0.4876,0.4939,0.4939,0.4939,0.4939,0.4939,0,0.4665,0.4678,0.4703,0.4731,0.4753,0.4749,0.4771,0.4789,0.4818,0.4838,0.4861,0.4897,0.4925,0.4941,0.4971,0.4989,0.4988,0.4996,0.4995,0.4998,0.4949,0.494,0.4996,0.4996,0.4996,0.4996,0.4996,0.4996,0.4696,0.4732,0.4738,0.4782,0.4795,0.4827,0.484,0.4859,0.4875,0.4914,0.4938,0.4949,0.4968,0.4999,0.5026,0.503,0.5041,0.505,0.5053,0.5007,0.5001,0.4995,0.4987,0.5052,0.5052,0.51,0.51,0.51]}]]